Regional Weather Roundup
Issued by NWS

Home | Current Version | Previous Version | Graphics & Text | Print | Product List | Glossary On
Versions: 1 2 3 4 5 6 7 8 9 10 11 12 13 14 15 16 17 18 19 20 21 22 23 24 25 26 27 28 29 30 31 32 33 34 35 36 37 38 39 40 41 42 43 44 45 46 47 48 49 50
000
ASUS43 KTOP 172208
RWRKS

WEATHER ROUNDUP FOR KANSAS
NATIONAL WEATHER SERVICE GOODLAND KS
500 PM CDT WED SEP 17 2014

NOTE:  "FAIR" INDICATES FEW OR NO CLOUDS BELOW 12,000 FEET WITH NO
SIGNIFICANT WEATHER AND/OR OBSTRUCTIONS TO VISIBILITY.

KSZ001>006-013>018-027>032-041>047-172300-
NORTHWEST KANSAS

CITY           SKY/WX    TMP DP  RH WIND       PRES   REMARKS
GOODLAND       MOSUNNY   82  53  36 S10       29.92F
HAYS           SUNNY     88  66  48 SE13      29.85F
HILL CITY      SUNNY     88  61  40 E8        29.86F
RUSSELL        SUNNY     86  67  52 E13       29.84F
$$

KSZ061>065-074>080-084>089-172300-
SOUTHWEST KANSAS

CITY           SKY/WX    TMP DP  RH WIND       PRES   REMARKS
DODGE CITY     MOSUNNY   95  46  18 SW6       29.85F
ELKHART          N/A     86  56  36 S13         N/A
GARDEN CITY    MOSUNNY   92  49  22 S8        29.87F
GREAT BEND     SUNNY     91  66  43 E12       29.82F
LIBERAL        CLOUDY    91  57  31 SW13      29.90F
PRATT          SUNNY     95  50  21 W5        29.84F
$$

KSZ066>073-081>083-090>101-172300-
SOUTHEAST KANSAS

CITY           SKY/WX    TMP DP  RH WIND       PRES   REMARKS
CHANUTE        MOSUNNY   87  71  58 E9        29.82F
COFFEYVILLE    SUNNY     90  69  50 W7        29.82F
HUTCHINSON     SUNNY     92  65  40 NE8       29.82F
MEDICINE LODGE   N/A     95  60  31 S12       29.80F HX  95
NEWTON         SUNNY     90  66  45 NE7       29.87F
PARSONS        SUNNY     90  71  53 S6        29.84F HX  96
WICHITA INTL   MOSUNNY   97  56  25 NW3       29.81S HX  95
WICHITA JABRA  SUNNY     94  59  31 SE3       29.82F
WICHITA MCCONL SUNNY     96  56  26 S2        29.82F
WINFIELD       SUNNY     94  63  35 S12       29.82F HX  95
$$

KSZ007>012-019>026-033>040-048>060-102>105-172300-
NORTHEAST KANSAS

CITY           SKY/WX    TMP DP  RH WIND       PRES   REMARKS
CONCORDIA      SUNNY     79  66  64 E9        29.87F
EMPORIA        SUNNY     80  68  66 NE10      29.86F
LAWRENCE       CLOUDY    75  65  70 E6        29.90R
MANHATTAN      SUNNY     80  67  64 E10       29.87F
MARYSVILLE     SUNNY     79  66  65 SE7       29.88F
OLATHE IND     CLOUDY    75  66  73 NE6       29.90F
OLATHE EXE     CLOUDY    72  66  81 NE8       29.89F
SALINA         SUNNY     86  68  54 E12       29.84F
TOPEKA BILLARD CLOUDY    77  68  73 E9        29.89F
TOPEKA FORBES  CLOUDY    75  67  76 E8        29.89F
$$


USA.gov is the U.S. government's official web portal to all federal, state and local government web resources and services.